默认 日期 大小 文件数 浏览量 最新下载 xml
hole磁力链接相关资源由用户搜索指令自动获取,结果来源于网络,本站不存储任何资料,亦不承担任何责任,请于24小时内删除,搜索到17757个磁力,显示前4000条数据,用时15ms。
    {"poster.jpg": 38777, "screens.jpg": 123569, "RARBG.com.txt": 33, "NoBoring.Kelsie.Which.Hole.to.Choose.31.07.16.rq.mp4": 478372170}
创建时间: 2024-12-20 12:55:08 大小:456.37 MB 文件数量:4 热度:6 最近下载:2025-01-26 04:16:01
    {"cover.jpg": 364736, "[TGx]Downloaded from torrentgalaxy.to .txt": 715, "17. Doppenberg - Escape (Extended Mix).mp3": 16993836, "20. Enigma State - S-bahn (Extended Mix).mp3": 17934252, "25. KINETICA - Who We Are (Extended Mix).mp3": 15171534, " ...
创建时间: 2024-12-20 11:26:18 大小:376.8 MB 文件数量:27 热度:4 最近下载:2025-04-14 19:02:01
    {"Torrent Downloaded From XXXClub.to .nfo": 34, "onlyfans.2024.variety.itsol.round.3.you.are.just.a.hole.to.me.ts.xxx.mp4": 1812310639}
创建时间: 2024-12-19 19:24:43 大小:1.69 GB 文件数量:2 热度:46 最近下载:2025-10-15 09:49:02
    {"Provided by PornRips.to.nfo": 47, "GloryHoleSecrets.24.06.14.Sydney.Paige.First.Glory.Hole.XXX.720p.HEVC.x265.PRT.mp4": 350191079}
创建时间: 2024-12-19 15:02:16 大小:333.97 MB 文件数量:2 热度:11 最近下载:2025-08-07 14:18:02
    {"Provided by PornRips.to.nfo": 47, "GloryHoleSecrets.21.02.03.London.Rose.First.Glory.Hole.POV.XXX.1080p.HEVC.x265.PRT.mp4": 973460416}
创建时间: 2024-12-19 11:31:45 大小:928.36 MB 文件数量:2 热度:6 最近下载:2025-07-25 11:44:02
    {"cover.jpg": 609388, "19. Daxson - Intuition (Extended Mix).mp3": 12367535, "11. ReOrder - 2024 XoXo (Extended Mix).mp3": 15487602, "[TGx]Downloaded from torrentgalaxy.to .txt": 691, "15. Andy Newtz - Elysian (Extended Mix).mp3": 19676600, "21. Chris ...
创建时间: 2024-12-19 10:47:00 大小:378.91 MB 文件数量:27 热度:4 最近下载:2025-03-14 17:41:02
    {"Provided by PornRips.to.nfo": 47, "GloryHoleSecrets.24.07.08.Ellie.Murphy.First.Glory.Hole.POV.XXX.1080p.HEVC.x265.PRT.mp4": 395589296}
创建时间: 2024-12-19 09:48:54 大小:377.26 MB 文件数量:2 热度:7 最近下载:2025-04-09 00:48:03
    {"Torrent Downloaded From XXXClub.to .nfo": 34, "gloryholesecrets.24.12.09.kimberly.love.first.glory.hole.pov.480p.mp4": 139968225}
创建时间: 2024-12-17 16:29:49 大小:133.48 MB 文件数量:2 热度:7 最近下载:2025-04-16 21:29:01
    {"Provided by PornRips.to.nfo": 47, "GloryHoleSecrets.24.12.13.Myste.Vixen.First.Glory.Hole.XXX.1080p.HEVC.x265.PRT.mp4": 338938377}
创建时间: 2024-12-17 12:55:32 大小:323.24 MB 文件数量:2 热度:9 最近下载:2025-03-29 09:28:05
    {"1.jpg": 25080, "2.jpg": 115967, "ghsecrets.15.09.25.chloe.and.gina.second.glory.hole.mp4": 1883131890}
创建时间: 2024-12-16 19:19:09 大小:1.75 GB 文件数量:3 热度:6 最近下载:2025-07-21 14:02:11
    {"[TGx]Downloaded from torrentgalaxy.to .txt": 479, "Night.Court.2023.S03E03.The.Hole.Truth.XviD-AFG.avi": 249465016, "Night.Court.2023.S03E03.The.Hole.Truth.XviD-AFG.nfo": 1130}
创建时间: 2024-12-16 14:50:48 大小:237.91 MB 文件数量:3 热度:2 最近下载:2025-01-18 13:39:07
    {"Torrent Downloaded From XXXClub.to .nfo": 34, "gloryholesecrets.24.12.13.myste.vixen.first.glory.hole.mp4": 1064926813}
创建时间: 2024-12-16 09:12:48 大小:1015.59 MB 文件数量:2 热度:17 最近下载:2025-09-24 16:35:04
    {"Provided by PornRips.to.nfo": 47, "GloryHoleSecrets.24.12.09.Kimberly.Love.First.Glory.Hole.POV.XXX.1080p.HEVC.x265.PRT.mp4": 229838830}
创建时间: 2024-12-15 17:51:52 大小:219.19 MB 文件数量:2 热度:8 最近下载:2025-03-29 12:09:02
    {"Torrent Downloaded From XXXClub.to .nfo": 34, "gloryholesecrets.24.12.09.kimberly.love.first.glory.hole.pov.mp4": 697107610}
创建时间: 2024-12-15 16:20:10 大小:664.81 MB 文件数量:2 热度:18 最近下载:2025-06-17 16:48:02
    {"Provided by PornRips.to.nfo": 47, "GloryHoleSecrets.24.12.13.Myste.Vixen.First.Glory.Hole.XXX.720p.HEVC.x265.PRT.mp4": 218626963}
创建时间: 2024-12-15 11:57:18 大小:208.5 MB 文件数量:2 热度:7 最近下载:2025-07-12 11:28:01
    {"Torrent Downloaded From XXXClub.to .nfo": 34, "gloryholesecrets.24.12.13.myste.vixen.first.glory.hole.480p.mp4": 228740349}
创建时间: 2024-12-15 10:34:13 大小:218.14 MB 文件数量:2 热度:5 最近下载:2025-04-22 23:59:01
    {"[TGx]Downloaded from torrentgalaxy.to .txt": 479, "Workin Moms S05E07 Launch Pad to Trash Hole 720p NF WEB-DL DDP5 1 H 264-NTb.mkv": 399579263, "Workin Moms S05E07 Launch Pad to Trash Hole 720p NF WEB-DL DDP5 1 H 264-NTb.nfo": 24570}
创建时间: 2024-12-14 18:38:46 大小:381.09 MB 文件数量:3 热度:2 最近下载:2025-01-13 05:04:01
    {"ghsecrets.13.07.08.gina.first.glory.hole.pov.mp4": 1103241906, "ghsecrets.13.07.08.gina.first.glory.hole.pov.nfo": 7119, "ghsecrets.13.07.08.gina.first.glory.hole.pov.sfv": 1357, "ghsecrets.13.07.08.gina.first.glory.hole.pov_s.jpg": 274691}
创建时间: 2024-12-14 18:34:27 大小:1.03 GB 文件数量:4 热度:2 最近下载:2025-01-15 11:08:11
    {"Provided by PornRips.to.nfo": 47, "GloryHoleSecrets.24.12.06.Kimberly.Love.First.Glory.Hole.XXX.720p.HEVC.x265.PRT.mp4": 134209153}
创建时间: 2024-12-14 16:21:56 大小:127.99 MB 文件数量:2 热度:4 最近下载:2025-03-23 17:28:02
    {"American Pie 8 - Hole in one DVDRiP AC3 XVid - ... .avi": 1477629156, "American Pie 8 - Hole in one DVDRiP AC3 XVid ... .srt": 97731, "American Pie 8 - Hole in one DVDRiP AC3 XVid ... .avi": 21535266, "American Pie 8 - Hole in one DVDRiP AC3 XVid ...
创建时间: 2024-12-14 15:32:08 大小:1.4 GB 文件数量:4 热度:5 最近下载:2025-09-15 19:15:10